Location: Ferchesar
(52.6477°N, 12.4298°E)
Time: 09:37:07
(UTC+01:00)

S-56A Canister/Altair - Pass Details

Date: 12 December 2021
Orbit: 633 x 2499 km, 38.9° (Epoch: 19 January)

Event Time Altitude Azimuth Distance (km) Brightness Sun altitude
Rises 21:13:59 0° 225° (SW) 6,064 12.3 -46.3°
Reaches altitude 10° 21:18:47 10° 217° (SW) 4,901 11.6 -47.0°
Enters shadow 21:22:29 19° 206° (SSW) 4,057 11.1 -47.5°
Maximum altitude 21:29:42 31° 163° (SSE) 2,956 - -48.4°
Drops below altitude 10° 21:38:01 10° 106° (ESE) 3,693 - -49.5°
Sets 21:41:03 0° 96° (E) 4,414 - -49.9°
